Вернуться в каталог

COSMOS 970 DEB

АктивенLEO
NORAD 14445·DEBRIS·🇷🇺 Russia

Запущен Dec 21, 1977 с Baikonur Cosmodrome

Loading…

Ближайшие Пролёты (ближайшие 24 часа)

TLE

СвежийSource: Space-Track

Эпоха: Sep 14, 2026, 08:01 UTC

1 14445U 77121BH  26257.33448695  .00009065  00000-0  14773-2 0  9994
2 14445  66.4592 326.4412 0030567  27.8003 332.4739 14.71066845205331

Отслеживайте COSMOS 970 DEB в реальном времени с AllMySat

Download on the App Store